Annette Island, AK

11:53 PM AKDT on May 20, 2018 (GMT -0800)
Annette Island

Weather History for PANT - April, 2013

Change the Weather History Date:

Sunday, April 7, 2013

  Actual Average Record
Temperature  
Mean Temperature 47 °F 43 °F  
Max Temperature 55 °F 49 °F 61 °F (2018)
Min Temperature 39 °F 37 °F 29 °F (1965)
Degree Days  
Heating Degree Days 18 22  
Month to date heating degree days 143 158  
Moisture  
Dew Point 37 °F    
Average Humidity 0    
Maximum Humidity 0    
Minimum Humidity 0    
Precipitation  
Precipitation 0.00 in 0.26 in 3.06 in (2006)
Month to date precipitation 0.19 1.77  
Year to date precipitation 26.11 27.86  
Snow  
Snow 0.00 in - - ()
Month to date snowfall 0.0  
Snow Depth 0.00 in    
Sea Level Pressure  
Sea Level Pressure 29.88 in    
Wind  
Wind Speed 4 mph (NW)    
Max Wind Speed 12 mph    
Max Gust Speed 15 mph    
Visibility 10 miles    
Events      
T = Trace of Precipitation, MM = Missing Value Source: NWS Daily Summary

Daily Weather History Graph

Daily Weather History Graph

Search for Another Location

Airport or City:

Astronomy

Apr. 07, 2013 Rise Set
Actual Time 6:01 AM AKDT 7:36 PM AKDT
Civil Twilight 5:23 AM AKDT 8:13 PM AKDT
Nautical Twilight 4:37 AM AKDT 9:01 PM AKDT
Astronomical Twilight 3:44 AM AKDT 9:54 PM AKDT
Moon 4:47 AM AKDT (4/7) 4:56 PM AKDT (4/7)
Length of Visible Light 14h 49m
Length of Day
13h 34m
Waning Crescent, 7% of the Moon is Illuminated
Apr 7
Waning Crescent
Apr 10
New
Apr 18
First Quarter
Apr 25
Full
May 2
Last Quarter

Hourly Weather History & Observations

Time (AKDT) Temp. Windchill Dew Point Humidity Pressure Visibility Wind Dir Wind Speed Gust Speed Precip Events Conditions
12:48 AM 44.6 °F 42.2 °F 39.2 °F 81% 29.78 in 10.0 mi ESE 4.6 mph - N/A   Overcast
12:53 AM 44.1 °F 41.5 °F 39.0 °F 82% 29.78 in 10.0 mi ESE 4.6 mph - N/A   Overcast
1:35 AM 44.6 °F 41.4 °F 39.2 °F 81% 29.78 in 10.0 mi ESE 5.8 mph - N/A   Mostly Cloudy
1:53 AM 44.1 °F 42.5 °F 39.9 °F 85% 29.79 in 10.0 mi ESE 3.5 mph - N/A   Overcast
2:24 AM 44.6 °F 43.1 °F 39.2 °F 81% 29.78 in 10.0 mi ESE 3.5 mph - N/A   Overcast
2:53 AM 43.0 °F 41.3 °F 39.0 °F 86% 29.79 in 10.0 mi East 3.5 mph - N/A   Mostly Cloudy
3:53 AM 43.0 °F - 39.0 °F 86% 29.80 in 10.0 mi Calm Calm - N/A   Overcast
4:53 AM 41.0 °F - 37.9 °F 89% 29.81 in 10.0 mi Calm Calm - N/A   Overcast
5:53 AM 39.0 °F - 37.0 °F 93% 29.83 in 10.0 mi Calm Calm - N/A   Mostly Cloudy
6:11 AM 39.2 °F - 37.4 °F 93% 29.82 in 10.0 mi Calm Calm - N/A   Mostly Cloudy
6:42 AM 39.2 °F 37.0 °F 37.4 °F 93% 29.83 in 10.0 mi NW 3.5 mph - N/A   Mostly Cloudy
6:53 AM 41.0 °F 39.0 °F 37.9 °F 89% 29.84 in 10.0 mi NNW 3.5 mph - N/A   Mostly Cloudy
7:53 AM 44.1 °F 42.5 °F 39.9 °F 85% 29.85 in 10.0 mi NW 3.5 mph - N/A   Overcast
8:32 AM 46.4 °F 44.3 °F 39.2 °F 76% 29.86 in 10.0 mi Variable 4.6 mph - N/A   Scattered Clouds
8:53 AM 46.9 °F - 37.9 °F 71% 29.87 in 10.0 mi Variable 5.8 mph - N/A   Mostly Cloudy
9:53 AM 48.0 °F - 39.0 °F 71% 29.88 in 10.0 mi WNW 6.9 mph - N/A   Mostly Cloudy
10:53 AM 48.9 °F - 37.9 °F 66% 29.91 in 10.0 mi NNW 8.1 mph - N/A   Mostly Cloudy
11:53 AM 51.1 °F - 37.9 °F 61% 29.91 in 10.0 mi Variable 5.8 mph - N/A   Mostly Cloudy
12:53 PM 53.1 °F - 37.9 °F 57% 29.92 in 10.0 mi NW 8.1 mph - N/A   Clear
1:53 PM 52.0 °F - 34.0 °F 50% 29.93 in 10.0 mi NW 9.2 mph - N/A   Partly Cloudy
2:53 PM 55.0 °F - 34.0 °F 45% 29.93 in 10.0 mi NW 8.1 mph - N/A   Partly Cloudy
3:53 PM 54.0 °F - 33.1 °F 45% 29.94 in 10.0 mi NW 6.9 mph - N/A   Clear
4:53 PM 55.0 °F - 33.1 °F 43% 29.94 in 10.0 mi West 3.5 mph - N/A   Clear
5:53 PM 51.1 °F - 35.1 °F 54% 29.95 in 10.0 mi West 4.6 mph - N/A   Clear
6:53 PM 48.0 °F - 36.0 °F 63% 29.95 in 10.0 mi SW 3.5 mph - N/A   Clear
7:53 PM 44.1 °F - 37.0 °F 76% 29.97 in 10.0 mi Calm Calm - N/A   Clear
8:53 PM 41.0 °F - 37.0 °F 86% 29.99 in 10.0 mi Calm Calm - N/A   Clear
9:53 PM 39.0 °F - 37.0 °F 93% 30.00 in 10.0 mi Calm Calm - N/A   Clear
10:53 PM 39.0 °F 35.7 °F 37.0 °F 93% 30.00 in 10.0 mi NNW 4.6 mph - N/A   Clear
11:53 PM 39.0 °F - 37.0 °F 93% 30.00 in 10.0 mi Calm Calm - N/A   Clear